Location: Kolin
(50.0330°N, 15.2000°E)
Time: 10:46:41
(UTC+02:00)

ISS - Pass Details

Date: 19 May 2021
Orbit: 417 x 422 km, 51.6° (Epoch: 13 June)

Event Time Altitude Azimuth Distance (km) Brightness Sun altitude
Rises 22:05:50 0° 256° (WSW) 2,360 0.4 -10.6°
Reaches altitude 10° 22:07:55 10° 257° (WSW) 1,499 -0.6 -10.8°
Maximum altitude 22:11:17 83° 347° (NNW) 428 -3.7 -11.2°
Drops below altitude 10° 22:14:40 10° 75° (ENE) 1,505 -1.2 -11.5°
Sets 22:16:47 0° 76° (ENE) 2,372 -0.2 -11.7°
